| time (UTC) | temp F | wind direction | speed MPH | gust MPH | rain 1hr in | rain 24hr in | rain mn in | humidity % | barometer mb |
| 20260507182048 | 52 | 347 | 5.0 | 16.0 | 0.00 | 0.16 | 0.00 | 44 | 1007.6 |
| 20260507181548 | 52 | 4 | 6.0 | 13.0 | 0.00 | 0.16 | 0.00 | 46 | 1007.5 |
| 20260507181043 | 51 | 309 | 7.0 | 13.0 | 0.00 | 0.16 | 0.00 | 48 | 1007.5 |
| 20260507180543 | 51 | 321 | 7.0 | 17.0 | 0.00 | 0.16 | 0.00 | 48 | 1007.6 |
| 20260507175543 | 51 | 322 | 6.0 | 15.0 | 0.00 | 0.17 | 0.00 | 48 | 1007.4 |
| 20260507175043 | 51 | 3 | 6.0 | 15.0 | 0.00 | 0.17 | 0.00 | 46 | 1007.5 |
| 20260507174548 | 51 | 304 | 6.0 | 14.0 | 0.00 | 0.17 | 0.00 | 46 | 1007.6 |
| 20260507174047 | 51 | 17 | 6.0 | 14.0 | 0.00 | 0.18 | 0.00 | 47 | 1007.5 |
| 20260507173547 | 52 | 347 | 6.0 | 16.0 | 0.00 | 0.18 | 0.00 | 49 | 1007.4 |
| 20260507173047 | 53 | 305 | 7.0 | 16.0 | 0.00 | 0.19 | 0.00 | 46 | 1007.5 |
| 20260507172043 | 52 | 320 | 8.0 | 19.0 | 0.00 | 0.21 | 0.00 | 47 | 1007.6 |
| 20260507171543 | 51 | 27 | 8.0 | 20.0 | 0.00 | 0.22 | 0.00 | 50 | 1007.5 |
| 20260507171039 | 51 | 4 | 9.0 | 23.0 | 0.00 | 0.22 | 0.00 | 47 | 1007.6 |
| 20260507170539 | 51 | 240 | 11.0 | 23.0 | 0.00 | 0.22 | 0.00 | 47 | 1007.8 |
| 20260507170039 | 50 | 328 | 9.0 | 26.0 | 0.00 | 0.23 | 0.00 | 48 | 1007.8 |
| 20260507165039 | 50 | 303 | 8.0 | 18.0 | 0.00 | 0.25 | 0.00 | 49 | 1007.8 |
| 20260507164539 | 50 | 239 | 8.0 | 20.0 | 0.00 | 0.26 | 0.00 | 48 | 1007.9 |
| 20260507164036 | 51 | 13 | 7.0 | 20.0 | 0.00 | 0.26 | 0.00 | 50 | 1007.7 |
| 20260507163035 | 51 | 275 | 8.0 | 20.0 | 0.00 | 0.28 | 0.00 | 51 | 1008.1 |
| 20260507162536 | 51 | 263 | 8.0 | 20.0 | 0.00 | 0.29 | 0.00 | 48 | 1008.1 |
| 20260507162035 | 51 | 318 | 8.0 | 17.0 | 0.00 | 0.30 | 0.00 | 51 | 1008.2 |
| 20260507161536 | 50 | 241 | 7.0 | 17.0 | 0.00 | 0.31 | 0.00 | 52 | 1008.1 |
| 20260507161035 | 49 | 359 | 8.0 | 20.0 | 0.00 | 0.32 | 0.00 | 55 | 1008.3 |
| 20260507160536 | 49 | 307 | 7.0 | 20.0 | 0.00 | 0.34 | 0.00 | 52 | 1008.4 |
| 20260507160036 | 49 | 224 | 6.0 | 15.0 | 0.00 | 0.36 | 0.00 | 55 | 1008.5 |
| 20260507155532 | 49 | 282 | 7.0 | 19.0 | 0.00 | 0.37 | 0.00 | 56 | 1008.5 |
| 20260507154531 | 49 | 335 | 6.0 | 17.0 | 0.00 | 0.39 | 0.00 | 51 | 1008.4 |
| 20260507154031 | 49 | 236 | 6.0 | 14.0 | 0.00 | 0.41 | 0.00 | 56 | 1008.5 |
| 20260507153532 | 48 | 294 | 7.0 | 13.0 | 0.00 | 0.42 | 0.00 | 55 | 1008.6 |
| 20260507153031 | 48 | 311 | 6.0 | 14.0 | 0.00 | 0.43 | 0.00 | 55 | 1008.6 |
| 20260507151532 | 48 | 309 | 8.0 | 20.0 | 0.00 | 0.45 | 0.00 | 59 | 1008.8 |
| 20260507151027 | 48 | 308 | 7.0 | 20.0 | 0.00 | 0.47 | 0.00 | 58 | 1008.8 |
| 20260507145527 | 48 | 293 | 4.0 | 11.0 | 0.00 | 0.49 | 0.00 | 63 | 1008.6 |
| 20260507145027 | 47 | 315 | 4.0 | 11.0 | 0.00 | 0.50 | 0.00 | 67 | 1008.6 |
| 20260507144527 | 47 | 354 | 4.0 | 13.0 | 0.00 | 0.50 | 0.00 | 62 | 1008.7 |
| 20260507144027 | 48 | 345 | 4.0 | 13.0 | 0.00 | 0.51 | 0.00 | 65 | 1008.7 |
| 20260507143528 | 47 | 310 | 6.0 | 18.0 | 0.00 | 0.52 | 0.00 | 67 | 1008.8 |
| 20260507143028 | 47 | 4 | 8.0 | 19.0 | 0.00 | 0.53 | 0.00 | 64 | 1008.8 |
| 20260507142527 | 46 | 319 | 8.0 | 19.0 | 0.00 | 0.53 | 0.00 | 67 | 1008.9 |
| 20260507142028 | 46 | 310 | 8.0 | 21.0 | 0.00 | 0.53 | 0.00 | 64 | 1008.8 |
| 20260507141527 | 46 | 276 | 9.0 | 21.0 | 0.00 | 0.54 | 0.00 | 68 | 1009.0 |
| 20260507140527 | 46 | 305 | 6.0 | 10.0 | 0.00 | 0.55 | 0.00 | 65 | 1008.9 |
| 20260507140028 | 45 | 315 | 6.0 | 12.0 | 0.00 | 0.55 | 0.00 | 67 | 1009.0 |
| 20260507135527 | 46 | 269 | 5.0 | 12.0 | 0.00 | 0.56 | 0.00 | 67 | 1009.0 |
| 20260507135028 | 46 | 248 | 5.0 | 16.0 | 0.00 | 0.56 | 0.00 | 71 | 1009.1 |
| 20260507134527 | 46 | 302 | 6.0 | 16.0 | 0.00 | 0.56 | 0.00 | 70 | 1008.9 |
| 20260507133027 | 45 | 264 | 5.0 | 12.0 | 0.00 | 0.56 | 0.00 | 69 | 1008.9 |
| 20260507132526 | 45 | 329 | 4.0 | 17.0 | 0.00 | 0.56 | 0.00 | 70 | 1008.9 |
| 20260507132025 | 45 | 328 | 5.0 | 17.0 | 0.00 | 0.56 | 0.00 | 70 | 1008.8 |
| 20260507131525 | 45 | 335 | 6.0 | 17.0 | 0.00 | 0.56 | 0.00 | 73 | 1008.7 |
| 20260507131026 | 45 | 359 | 5.0 | 17.0 | 0.00 | 0.57 | 0.00 | 73 | 1008.8 |
| 20260507130525 | 45 | 262 | 5.0 | 14.0 | 0.00 | 0.57 | 0.00 | 76 | 1008.8 |
| 20260507130026 | 44 | 330 | 6.0 | 14.0 | 0.00 | 0.57 | 0.00 | 73 | 1008.8 |
| 20260507125528 | 44 | 25 | 5.0 | 14.0 | 0.00 | 0.58 | 0.00 | 75 | 1008.8 |
| 20260507125022 | 44 | 279 | 3.0 | 9.0 | 0.00 | 0.58 | 0.00 | 81 | 1008.7 |
| 20260507124516 | 44 | 309 | 3.0 | 13.0 | 0.00 | 0.58 | 0.00 | 79 | 1008.7 |
| 20260507124010 | 44 | 293 | 5.0 | 13.0 | 0.00 | 0.59 | 0.00 | 78 | 1008.8 |
| 20260507123503 | 44 | 296 | 5.0 | 13.0 | 0.00 | 0.59 | 0.00 | 78 | 1008.8 |
| 20260507122959 | 44 | 310 | 4.0 | 13.0 | 0.00 | 0.60 | 0.00 | 80 | 1008.8 |
| 20260507122457 | 45 | 332 | 3.0 | 9.0 | 0.00 | 0.61 | 0.00 | 83 | 1008.8 |
| 20260507121957 | 44 | 283 | 4.0 | 10.0 | 0.00 | 0.61 | 0.00 | 81 | 1008.8 |
| 20260507121457 | 44 | 216 | 2.0 | 10.0 | 0.00 | 0.62 | 0.00 | 82 | 1008.7 |
| 20260507120957 | 44 | 288 | 2.0 | 5.0 | 0.00 | 0.62 | 0.00 | 88 | 1008.7 |
| 20260507120457 | 43 | 234 | 3.0 | 8.0 | 0.00 | 0.63 | 0.00 | 91 | 1008.8 |
| 20260507115957 | 42 | 230 | 3.0 | 8.0 | 0.00 | 0.63 | 0.00 | 88 | 1008.7 |
| 20260507115453 | 42 | 267 | 2.0 | 9.0 | 0.00 | 0.64 | 0.00 | 91 | 1008.7 |
| 20260507114953 | 42 | 307 | 2.0 | 9.0 | 0.00 | 0.65 | 0.00 | 91 | 1008.5 |
| 20260507114453 | 42 | 298 | 2.0 | 8.0 | 0.00 | 0.65 | 0.00 | 93 | 1008.4 |
| 20260507113953 | 42 | 289 | 1.0 | 5.0 | 0.00 | 0.66 | 0.00 | 94 | 1008.2 |
| 20260507113453 | 42 | 281 | 2.0 | 6.0 | 0.00 | 0.67 | 0.00 | 94 | 1008.2 |
| 20260507112953 | 42 | 236 | 2.0 | 6.0 | 0.00 | 0.68 | 0.00 | 95 | 1008.2 |
| 20260507111951 | 42 | 288 | 2.0 | 7.0 | 0.00 | 0.69 | 0.00 | 98 | 1008.4 |
| 20260507111451 | 42 | 281 | 1.0 | 6.0 | 0.00 | 0.69 | 0.00 | 99 | 1008.2 |
| 20260507110944 | 42 | 238 | 2.0 | 6.0 | 0.00 | 0.69 | 0.00 | 99 | 1008.2 |
| 20260507110438 | 42 | 309 | 1.0 | 6.0 | 0.00 | 0.69 | 0.00 | 99 | 1008.2 |
| 20260507105932 | 42 | 333 | 1.0 | 3.0 | 0.00 | 0.69 | 0.00 | 99 | 1008.1 |
| 20260507105427 | 42 | 250 | 0.0 | 2.0 | 0.00 | 0.69 | 0.00 | 99 | 1008.0 |
| 20260507104922 | 42 | 239 | 0.0 | 2.0 | 0.00 | 0.70 | 0.00 | 99 | 1007.9 |
| 20260507104415 | 42 | 210 | 0.0 | 2.0 | 0.00 | 0.70 | 0.00 | 99 | 1007.9 |
| 20260507103403 | 42 | 241 | 0.0 | 0.0 | 0.00 | 0.70 | 0.00 | 99 | 1007.7 |
| 20260507102856 | 42 | 241 | 0.0 | 0.0 | 0.00 | 0.70 | 0.00 | 99 | 1007.7 |
| 20260507102351 | 42 | 241 | 0.0 | 1.0 | 0.00 | 0.70 | 0.00 | 99 | 1007.8 |
| 20260507101844 | 41 | 241 | 0.0 | 1.0 | 0.00 | 0.70 | 0.00 | 99 | 1007.8 |
| 20260507101339 | 41 | 241 | 0.0 | 1.0 | 0.00 | 0.70 | 0.00 | 100 | 1007.8 |
| 20260507100833 | 41 | 241 | 0.0 | 1.0 | 0.00 | 0.70 | 0.00 | 100 | 1007.9 |
| 20260507100327 | 41 | 226 | 0.0 | 1.0 | 0.00 | 0.70 | 0.00 | 100 | 1007.9 |
| 20260507095821 | 41 | 229 | 0.0 | 2.0 | 0.00 | 0.72 | 0.00 | 100 | 1007.8 |
| 20260507095314 | 41 | 253 | 0.0 | 2.0 | 0.00 | 0.72 | 0.00 | 100 | 1007.8 |
| 20260507094809 | 41 | 216 | 0.0 | 1.0 | 0.00 | 0.72 | 0.00 | 99 | 1007.8 |
| 20260507094303 | 41 | 243 | 0.0 | 0.0 | 0.00 | 0.73 | 0.00 | 99 | 1007.8 |
| 20260507093756 | 41 | 243 | 0.0 | 0.0 | 0.00 | 0.73 | 0.00 | 99 | 1007.7 |
| 20260507093251 | 41 | 243 | 0.0 | 0.0 | 0.00 | 0.73 | 0.00 | 100 | 1007.7 |
| 20260507092744 | 41 | 244 | 1.0 | 3.0 | 0.00 | 0.73 | 0.00 | 100 | 1007.7 |
| 20260507092238 | 41 | 243 | 1.0 | 3.0 | 0.00 | 0.73 | 0.00 | 100 | 1007.7 |
| 20260507091227 | 40 | 335 | 0.0 | 0.0 | 0.00 | 0.74 | 0.00 | 99 | 1007.7 |
| 20260507090721 | 40 | 335 | 0.0 | 1.0 | 0.00 | 0.74 | 0.00 | 99 | 1007.8 |
| 20260507090221 | 40 | 335 | 0.0 | 1.0 | 0.00 | 0.74 | 0.00 | 99 | 1007.7 |
| 20260507085720 | 40 | 245 | 0.0 | 1.0 | 0.00 | 0.74 | 0.00 | 99 | 1007.7 |
| 20260507084723 | 41 | 244 | 1.0 | 3.0 | 0.00 | 0.74 | 0.00 | 99 | 1007.7 |
| 20260507084217 | 41 | 229 | 1.0 | 2.0 | 0.00 | 0.74 | 0.00 | 100 | 1007.6 |
| 20260507083715 | 41 | 236 | 2.0 | 4.0 | 0.00 | 0.75 | 0.00 | 100 | 1007.8 |
| 20260507083213 | 41 | 212 | 2.0 | 4.0 | 0.00 | 0.75 | 0.00 | 100 | 1008.1 |
| 20260507082711 | 41 | 200 | 1.0 | 2.0 | 0.00 | 0.75 | 0.00 | 100 | 1008.0 |
| 20260507082209 | 40 | 202 | 1.0 | 3.0 | 0.00 | 0.75 | 0.00 | 100 | 1008.0 |
| 20260507081709 | 40 | 260 | 1.0 | 3.0 | 0.00 | 0.75 | 0.00 | 100 | 1008.2 |
| 20260507081209 | 40 | 210 | 1.0 | 2.0 | 0.00 | 0.76 | 0.00 | 100 | 1008.1 |
| 20260507080209 | 40 | 143 | 0.0 | 1.0 | 0.00 | 0.78 | 0.00 | 99 | 1008.1 |
| 20260507075708 | 40 | 143 | 0.0 | 1.0 | 0.00 | 0.80 | 0.00 | 99 | 1008.2 |
| 20260507075205 | 40 | 143 | 0.0 | 1.0 | 0.00 | 0.80 | 0.00 | 99 | 1008.2 |
| 20260507074703 | 40 | 149 | 0.0 | 1.0 | 0.00 | 0.80 | 0.00 | 99 | 1008.3 |
| 20260507073703 | 40 | 249 | 0.0 | 1.0 | 0.00 | 0.81 | 0.00 | 99 | 1008.4 |
| 20260507073157 | 40 | 249 | 0.0 | 1.0 | 0.00 | 0.81 | 0.00 | 99 | 1008.3 |
| 20260507072656 | 39 | 292 | 0.0 | 2.0 | 0.00 | 0.81 | 0.00 | 99 | 1008.2 |
| 20260507072152 | 39 | 309 | 0.0 | 2.0 | 0.00 | 0.81 | 0.00 | 99 | 1008.2 |
| 20260507071647 | 39 | 271 | 0.0 | 1.0 | 0.00 | 0.82 | 0.00 | 99 | 1008.0 |
| 20260507071140 | 40 | 236 | 0.0 | 1.0 | 0.00 | 0.82 | 0.00 | 99 | 1007.8 |
| 20260507070635 | 39 | 236 | 0.0 | 0.0 | 0.00 | 0.82 | 0.00 | 99 | 1007.8 |
| 20260507070128 | 39 | 236 | 0.0 | 0.0 | 0.00 | 0.82 | 0.00 | 99 | 1007.8 |
| 20260507065623 | 39 | 236 | 0.0 | 0.0 | 0.00 | 0.83 | 0.00 | 99 | 1007.7 |
| 20260507065116 | 39 | 235 | 0.0 | 0.0 | 0.00 | 0.83 | 0.00 | 99 | 1007.8 |
| 20260507064611 | 39 | 236 | 0.0 | 0.0 | 0.00 | 0.84 | 0.00 | 99 | 1007.7 |
| 20260507063558 | 40 | 236 | 0.0 | 1.0 | 0.00 | 0.84 | 0.00 | 99 | 1007.7 |
| 20260507063053 | 40 | 236 | 0.0 | 1.0 | 0.00 | 0.84 | 0.00 | 99 | 1007.8 |
| 20260507062546 | 40 | 236 | 0.0 | 4.0 | 0.00 | 0.84 | 0.00 | 99 | 1007.8 |
| 20260507061029 | 40 | 229 | 1.0 | 4.0 | 0.00 | 0.85 | 0.00 | 99 | 1007.9 |
| 20260507060522 | 39 | 226 | 0.0 | 2.0 | 0.00 | 0.85 | 0.00 | 99 | 1008.0 |
| 20260507055510 | 40 | 193 | 1.0 | 2.0 | 0.00 | 0.86 | 0.00 | 99 | 1008.0 |
| 20260507055005 | 40 | 198 | 0.0 | 2.0 | 0.00 | 0.87 | 0.00 | 99 | 1007.8 |
| 20260507053953 | 40 | 225 | 0.0 | 1.0 | 0.00 | 0.87 | 0.00 | 99 | 1008.2 |
| 20260507053446 | 39 | 225 | 0.0 | 0.0 | 0.00 | 0.87 | 0.00 | 99 | 1008.2 |
| 20260507052941 | 40 | 225 | 0.0 | 1.0 | 0.00 | 0.87 | 0.00 | 99 | 1008.3 |
| 20260507051929 | 40 | 225 | 0.0 | 2.0 | 0.00 | 0.88 | 0.00 | 99 | 1008.2 |
| 20260507051422 | 40 | 225 | 1.0 | 2.0 | 0.00 | 0.89 | 0.00 | 99 | 1008.3 |
| 20260507045905 | 40 | 224 | 1.0 | 2.0 | 0.00 | 0.92 | 0.00 | 99 | 1008.8 |
| 20260507045359 | 40 | 161 | 1.0 | 2.0 | 0.00 | 0.93 | 0.00 | 99 | 1008.8 |
| 20260507044852 | 40 | 169 | 0.0 | 1.0 | 0.00 | 0.94 | 0.00 | 99 | 1008.8 |
| 20260507044347 | 40 | 169 | 0.0 | 1.0 | 0.00 | 0.96 | 0.00 | 99 | 1008.9 |
| 20260507043335 | 41 | 169 | 0.0 | 2.0 | 0.00 | 0.97 | 0.00 | 99 | 1008.9 |
| 20260507042828 | 41 | 169 | 1.0 | 2.0 | 0.00 | 0.98 | 0.00 | 99 | 1008.9 |
| 20260507042323 | 41 | 169 | 1.0 | 2.0 | 0.00 | 0.98 | 0.00 | 99 | 1008.8 |
| 20260507041816 | 41 | 169 | 0.0 | 1.0 | 0.00 | 0.99 | 0.00 | 99 | 1008.8 |
| 20260507041311 | 42 | 169 | 0.0 | 1.0 | 0.00 | 0.99 | 0.00 | 99 | 1008.9 |
| 20260507040804 | 42 | 169 | 0.0 | 1.0 | 0.00 | 1.00 | 0.00 | 99 | 1008.9 |
| 20260507040259 | 42 | 211 | 0.0 | 1.0 | 0.00 | 1.00 | 0.00 | 99 | 1009.0 |
| 20260507035247 | 42 | 164 | 0.0 | 2.0 | 0.00 | 1.02 | 1.00 | 98 | 1008.9 |
| 20260507034235 | 42 | 164 | 1.0 | 2.0 | 0.00 | 1.02 | 1.00 | 99 | 1008.8 |
| 20260507033730 | 42 | 165 | 1.0 | 2.0 | 0.00 | 1.02 | 1.00 | 99 | 1008.9 |
| 20260507033223 | 42 | 165 | 1.0 | 1.0 | 0.00 | 1.02 | 1.00 | 99 | 1008.9 |
| 20260507031706 | 42 | 174 | 0.0 | 0.0 | 0.00 | 1.06 | 1.00 | 98 | 1009.0 |
| 20260507031159 | 43 | 174 | 1.0 | 3.0 | 0.00 | 1.08 | 1.00 | 98 | 1009.1 |
| 20260507030654 | 43 | 174 | 1.0 | 3.0 | 0.00 | 1.09 | 1.00 | 99 | 1009.1 |
| 20260507030147 | 43 | 199 | 0.0 | 2.0 | 0.00 | 1.10 | 1.00 | 99 | 1009.1 |
| 20260507025642 | 43 | 253 | 0.0 | 1.0 | 0.00 | 1.10 | 1.00 | 99 | 1009.2 |
| 20260507025135 | 43 | 248 | 0.0 | 1.0 | 0.00 | 1.10 | 1.00 | 99 | 1009.2 |
| 20260507024629 | 43 | 285 | 0.0 | 1.0 | 0.00 | 1.10 | 1.00 | 99 | 1009.2 |
| 20260507024123 | 43 | 237 | 0.0 | 1.0 | 0.00 | 1.10 | 1.00 | 99 | 1009.1 |
| 20260507023618 | 43 | 237 | 0.0 | 1.0 | 0.00 | 1.10 | 1.00 | 99 | 1009.1 |
| 20260507023111 | 43 | 203 | 0.0 | 0.0 | 0.00 | 1.10 | 1.00 | 99 | 1009.1 |
| 20260507022605 | 43 | 202 | 0.0 | 2.0 | 0.00 | 1.10 | 1.00 | 99 | 1009.1 |
| 20260507022100 | 43 | 202 | 0.0 | 2.0 | 0.00 | 1.11 | 1.00 | 99 | 1009.2 |
| 20260507021553 | 43 | 202 | 0.0 | 2.0 | 0.00 | 1.11 | 1.00 | 99 | 1009.0 |
| 20260507021048 | 43 | 202 | 1.0 | 2.0 | 0.00 | 1.11 | 1.00 | 98 | 1008.9 |
| 20260507020541 | 43 | 219 | 0.0 | 2.0 | 0.00 | 1.12 | 1.00 | 98 | 1008.9 |
| 20260507020036 | 43 | 238 | 0.0 | 2.0 | 0.00 | 1.14 | 1.00 | 99 | 1009.1 |
| 20260507015529 | 43 | 209 | 1.0 | 2.0 | 0.00 | 1.16 | 1.00 | 99 | 1009.2 |
| 20260507015024 | 43 | 285 | 1.0 | 2.0 | 0.00 | 1.16 | 1.00 | 98 | 1009.2 |
| 20260507013506 | 43 | 302 | 0.0 | 3.0 | 0.00 | 1.16 | 1.00 | 98 | 1009.3 |
| 20260507013000 | 43 | 242 | 1.0 | 3.0 | 0.00 | 1.16 | 1.00 | 98 | 1009.3 |
| 20260507012453 | 43 | 266 | 1.0 | 3.0 | 0.00 | 1.16 | 1.00 | 98 | 1009.3 |
| 20260507011948 | 43 | 307 | 1.0 | 3.0 | 0.00 | 1.16 | 1.00 | 98 | 1009.3 |
| 20260507011441 | 43 | 225 | 0.0 | 1.0 | 0.00 | 1.16 | 1.00 | 98 | 1009.2 |
| 20260507010936 | 43 | 236 | 0.0 | 2.0 | 0.00 | 1.16 | 1.00 | 98 | 1009.1 |
| 20260507010429 | 43 | 312 | 1.0 | 2.0 | 0.00 | 1.16 | 1.00 | 98 | 1009.1 |
| 20260507005924 | 44 | 287 | 1.0 | 3.0 | 0.01 | 1.16 | 1.00 | 98 | 1009.0 |
| 20260507004911 | 44 | 285 | 1.0 | 3.0 | 0.01 | 1.16 | 1.00 | 98 | 1008.9 |
| 20260507003859 | 44 | 318 | 0.0 | 3.0 | 0.01 | 1.16 | 1.00 | 98 | 1008.9 |
| 20260507003354 | 44 | 346 | 0.0 | 1.0 | 0.01 | 1.16 | 1.00 | 98 | 1008.8 |
| 20260507002848 | 44 | 270 | 0.0 | 1.0 | 0.01 | 1.16 | 1.00 | 98 | 1008.7 |
| 20260507002341 | 44 | 303 | 0.0 | 1.0 | 0.01 | 1.16 | 1.00 | 98 | 1008.7 |
| 20260507001836 | 44 | 302 | 0.0 | 1.0 | 0.01 | 1.16 | 1.00 | 98 | 1008.6 |
| 20260507000823 | 44 | 40 | 0.0 | 1.0 | 0.02 | 1.16 | 1.00 | 98 | 1008.4 |
| 20260507000318 | 44 | 39 | 0.0 | 1.0 | 0.03 | 1.16 | 1.00 | 98 | 1008.3 |
| 20260506235307 | 44 | 40 | 0.0 | 1.0 | 0.02 | 1.15 | 0.99 | 98 | 1008.3 |
| 20260506234759 | 44 | 40 | 0.0 | 0.0 | 0.02 | 1.15 | 0.99 | 98 | 1008.1 |
| 20260506233241 | 44 | 40 | 0.0 | 1.0 | 0.02 | 1.15 | 0.99 | 98 | 1008.0 |
| 20260506232735 | 44 | 39 | 0.0 | 1.0 | 0.02 | 1.15 | 0.99 | 98 | 1007.9 |
| 20260506232230 | 44 | 126 | 0.0 | 1.0 | 0.02 | 1.15 | 0.99 | 98 | 1007.8 |
| 20260506231723 | 44 | 126 | 0.0 | 1.0 | 0.02 | 1.15 | 0.99 | 98 | 1007.8 |
| 20260506231218 | 44 | 126 | 0.0 | 1.0 | 0.01 | 1.14 | 0.98 | 98 | 1007.9 |
| 20260506230712 | 44 | 127 | 0.0 | 0.0 | 0.01 | 1.14 | 0.98 | 98 | 1007.9 |
| 20260506230205 | 44 | 127 | 0.0 | 1.0 | 0.00 | 1.13 | 0.97 | 98 | 1007.9 |
| 20260506225700 | 44 | 127 | 0.0 | 1.0 | 0.00 | 1.13 | 0.97 | 98 | 1008.1 |
| 20260506225153 | 44 | 127 | 0.0 | 1.0 | 0.00 | 1.13 | 0.97 | 98 | 1008.2 |
| 20260506224648 | 44 | 81 | 0.0 | 1.0 | 0.00 | 1.13 | 0.97 | 98 | 1008.2 |
| 20260506224141 | 44 | 81 | 0.0 | 2.0 | 0.00 | 1.13 | 0.97 | 98 | 1008.2 |
| 20260506223636 | 44 | 85 | 0.0 | 2.0 | 0.00 | 1.13 | 0.97 | 98 | 1008.0 |
| 20260506223130 | 44 | 97 | 0.0 | 2.0 | 0.00 | 1.13 | 0.97 | 98 | 1007.9 |
| 20260506221612 | 44 | 42 | 1.0 | 3.0 | 0.00 | 1.13 | 0.97 | 98 | 1008.2 |
| 20260506221105 | 44 | 67 | 1.0 | 3.0 | 0.00 | 1.13 | 0.97 | 98 | 1008.0 |
| 20260506220600 | 44 | 78 | 1.0 | 4.0 | 0.01 | 1.13 | 0.97 | 98 | 1008.0 |
| 20260506220053 | 44 | 32 | 0.0 | 4.0 | 0.01 | 1.13 | 0.97 | 98 | 1008.1 |
| 20260506215547 | 44 | 32 | 1.0 | 5.0 | 0.01 | 1.13 | 0.97 | 98 | 1008.1 |
| 20260506215041 | 44 | 23 | 2.0 | 5.0 | 0.02 | 1.13 | 0.97 | 97 | 1008.0 |
| 20260506214029 | 45 | 29 | 1.0 | 2.0 | 0.03 | 1.13 | 0.97 | 98 | 1008.0 |
| 20260506213524 | 45 | 37 | 1.0 | 2.0 | 0.04 | 1.13 | 0.97 | 98 | 1008.0 |
| 20260506213017 | 44 | 44 | 1.0 | 3.0 | 0.05 | 1.13 | 0.97 | 97 | 1007.8 |
| 20260506212512 | 45 | 349 | 2.0 | 4.0 | 0.05 | 1.13 | 0.97 | 98 | 1007.7 |
| 20260506212005 | 45 | 345 | 1.0 | 4.0 | 0.06 | 1.13 | 0.97 | 98 | 1007.5 |
| 20260506211500 | 45 | 21 | 0.0 | 4.0 | 0.06 | 1.13 | 0.97 | 98 | 1007.5 |
| 20260506210447 | 44 | 277 | 0.0 | 3.0 | 0.06 | 1.12 | 0.96 | 98 | 1008.0 |
| 20260506205942 | 44 | 335 | 0.0 | 3.0 | 0.06 | 1.12 | 0.96 | 98 | 1008.1 |
| 20260506205435 | 44 | 68 | 1.0 | 2.0 | 0.05 | 1.11 | 0.96 | 98 | 1008.1 |
| 20260506204930 | 44 | 359 | 1.0 | 2.0 | 0.06 | 1.11 | 0.95 | 98 | 1008.0 |
| 20260506203918 | 44 | 304 | 0.0 | 1.0 | 0.05 | 1.10 | 0.94 | 98 | 1007.8 |
| 20260506203412 | 44 | 68 | 0.0 | 1.0 | 0.04 | 1.09 | 0.93 | 98 | 1007.9 |
| 20260506202359 | 44 | 35 | 1.0 | 4.0 | 0.03 | 1.09 | 0.92 | 97 | 1007.8 |
| 20260506201347 | 44 | 36 | 2.0 | 6.0 | 0.02 | 1.12 | 0.90 | 97 | 1007.7 |
| 20260506200842 | 44 | 34 | 1.0 | 3.0 | 0.02 | 1.12 | 0.90 | 97 | 1007.7 |
| 20260506200335 | 44 | 39 | 1.0 | 4.0 | 0.03 | 1.12 | 0.90 | 97 | 1007.6 |
| 20260506195830 | 44 | 25 | 2.0 | 4.0 | 0.03 | 1.12 | 0.90 | 97 | 1007.7 |
| 20260506195324 | 44 | 25 | 2.0 | 3.0 | 0.03 | 1.11 | 0.89 | 97 | 1007.6 |
| 20260506194817 | 44 | 42 | 2.0 | 5.0 | 0.03 | 1.11 | 0.89 | 98 | 1007.5 |
| 20260506194312 | 44 | 18 | 2.0 | 5.0 | 0.03 | 1.11 | 0.89 | 97 | 1007.4 |
| 20260506193805 | 44 | 345 | 1.0 | 4.0 | 0.04 | 1.11 | 0.89 | 98 | 1007.4 |
| 20260506193300 | 44 | 19 | 1.0 | 3.0 | 0.04 | 1.11 | 0.89 | 98 | 1007.4 |
| 20260506192753 | 44 | 21 | 1.0 | 3.0 | 0.04 | 1.11 | 0.89 | 98 | 1007.4 |
| 20260506192247 | 44 | 57 | 1.0 | 3.0 | 0.05 | 1.11 | 0.89 | 98 | 1007.4 |
| 20260506191742 | 44 | 32 | 1.0 | 2.0 | 0.04 | 1.10 | 0.88 | 98 | 1007.4 |
| 20260506191235 | 44 | 20 | 1.0 | 2.0 | 0.04 | 1.10 | 0.88 | 98 | 1007.4 |
| 20260506190730 | 44 | 82 | 1.0 | 2.0 | 0.04 | 1.23 | 0.88 | 98 | 1007.4 |
| 20260506190223 | 44 | 75 | 0.0 | 2.0 | 0.04 | 1.23 | 0.87 | 98 | 1007.6 |
| 20260506185717 | 44 | 311 | 0.0 | 2.0 | 0.04 | 1.23 | 0.87 | 98 | 1007.7 |
| 20260506184705 | 43 | 343 | 1.0 | 3.0 | 0.03 | 1.28 | 0.86 | 98 | 1007.9 |
| 20260506184200 | 43 | 3 | 1.0 | 3.0 | 0.02 | 1.27 | 0.85 | 98 | 1008.1 |
| 20260506183654 | 43 | 68 | 1.0 | 2.0 | 0.03 | 1.27 | 0.85 | 98 | 1008.0 |
| 20260506183147 | 43 | 32 | 1.0 | 2.0 | 0.04 | 1.27 | 0.85 | 98 | 1008.0 |
| 20260506182642 | 43 | 41 | 1.0 | 3.0 | 0.05 | 1.27 | 0.85 | 98 | 1008.2 |